This demonstration page uses our WeatherBlox Daily Observations layout. Learn more.

Left ArrowRight Arrow

41.12389, -100.76542

Hourly Observations for January 15, 2018

Temp ( °F °C ) Dew Point ( °F °C ) Humidity (%) Winds ( mph kmh ) Pressure ( in mb ) Visibility ( mi km ) Precip ( " mm )
12:53 am 00:53 Partly Cloudy 23 -5 16 -8.9 74 74 N 13 20 30.39 1029 10 16 0.00 0.03
1:53 am 01:53 Mostly Cloudy 19 -7.2 13 -10.6 77 77 N 13 20 30.42 1030 10 16 0.00 0.00
2:53 am 02:53 Partly Cloudy 15 -9.4 8 -13.3 74 74 N 10 17 30.46 1031 10 16 0.00 0.00
3:53 am 03:53 Partly Cloudy 14 -10 6 -14.4 71 71 N 20 31 30.49 1033 10 16 0.00 0.00
4:53 am 04:53 Clear 8 -13.3 -4 -20 57 57 NNW 17 28 30.53 1034 10 16 0.00 0.00
5:53 am 05:53 Clear 5 -15 -4 -20 66 66 NNW 13 20 30.58 1036 10 16 0.00 0.00
6:53 am 06:53 Clear 3 -16.1 -6 -21.1 66 66 NNW 12 19 30.61 1037 10 16 0.00 0.00
7:53 am 07:53 Clear 2 -16.7 -6 -21.1 69 69 NW 9 15 30.65 1038 10 16 0.00 0.00
8:53 am 08:53 Sunny 2 -16.7 -7 -21.7 65 65 NW 13 20 30.69 1039 10 16 0.00 0.00
9:53 am 09:53 Sunny 4 -15.6 -7 -21.7 60 60 NNW 18 30 30.72 1040 10 16 0.00 0.00
10:53 am 10:53 Sunny 5 -15 -7 -21.7 57 57 NNW 20 31 30.76 1042 10 16 0.00 0.00
11:53 am 11:53 Sunny 6 -14.4 -6 -21.1 57 57 NNW 22 35 30.76 1042 10 16 0.00 0.00
12:53 pm 12:53 Sunny 7 -13.9 -6 -21.1 55 55 NNW 20 31 30.74 1041 10 16 0.00 0.00
1:53 pm 13:53 Sunny 8 -13.3 -6 -21.1 52 52 NNW 24 39 30.73 1041 10 16 0.00 0.00
2:53 pm 14:53 Sunny 8 -13.3 -7 -21.7 50 50 NNW 24 39 30.75 1041 10 16 0.00 0.00
3:53 pm 15:53 Sunny 8 -13.3 -8 -22.2 47 47 NNW 21 33 30.77 1042 10 16 0.00 0.00
4:53 pm 16:53 Sunny 7 -13.9 -7 -21.7 52 52 NNW 18 30 30.80 1043 10 16 0.00 0.00
5:53 pm 17:53 Clear 4 -15.6 -7 -21.7 60 60 NW 13 20 30.83 1044 10 16 0.00 0.00
6:53 pm 18:53 Clear 4 -15.6 -7 -21.7 60 60 NW 16 26 30.85 1045 10 16 0.00 0.00
7:53 pm 19:53 Clear 3 -16.1 -7 -21.7 62 62 NW 12 19 30.86 1045 10 16 0.00 0.00
8:53 pm 20:53 Clear 2 -16.7 -8 -22.2 63 63 NW 13 20 30.88 1046 10 16 0.00 0.00
9:53 pm 21:53 Clear 1 -17.2 -9 -22.8 62 62 NW 13 20 30.88 1046 10 16 0.00 0.00
10:53 pm 22:53 Clear 0 -17.8 -10 -23.3 62 62 NNW 12 19 30.90 1046 10 16 0.00 0.00
11:53 pm 23:53 Clear -1 -18.3 -11 -23.9 62 62 NNW 10 17 30.91 1047 10 16 0.00 0.00

Powered by AerisWeather